Tracking 20241 objects as of 25-Jan-2020
HD Live streaming from Space Station
objects crossing your sky now

COSMOS 2251 DEB

Track COSMOS 2251 DEB now!
10-day predictions


NORAD ID: 34026
Int'l Code: 1993-036HM
Perigee: 773.9 km
Apogee: 1,311.1 km
Inclination: 73.8 °
Period: 105.9 minutes
Semi major axis: 7413 km
RCS: 0.0392 m2 (small)
Launch date: June 16, 1993
Source: Commonwealth of Independent States (former USSR) (CIS)
Launch site: PLESETSK MISSILE AND SPACE COMPLEX (PKMTR)

Note: This is SATELLITE DEBRIS
aabbcc
Your satellite tracking list
Your tracking list is empty




NASA's NSSDC Master Catalog

Two Line Element Set (TLE):
1 34026U 93036HM  20024.46005363  .00000360  00000-0  33002-3 0  9991
2 34026  73.7672 290.0082 0362261 126.2971  45.5004 13.60092158542912
Source of the keplerian elements: AFSPC